This is the latest recevied weather packets stored in our database for station/object KY0TEQ-13. If no packets are shown the sender has not sent any weather packets the latest 10 day(s).
| Time | Temp. | Humidity | Pressure | Rain* | Wind** | Luminosity | Snow |
|---|---|---|---|---|---|---|---|
| 1777712998 | 0.56° C | 72% | 1308.2 hPa | 0 mm | - | 0 W/m² | - |
| 1777712694 | 1.11° C | 71% | 1308.2 hPa | 0 mm | - | 0 W/m² | - |
| 1777712390 | 0.56° C | 72% | 1308 hPa | 0 mm | - | 0 W/m² | - |
| 1777712087 | 0.56° C | 73% | 1308 hPa | 0 mm | - | 0 W/m² | - |
| 1777711784 | 0.56° C | 74% | 1308.4 hPa | 0 mm | - | 0 W/m² | - |
| 1777711481 | 0.56° C | 73% | 1308 hPa | 0 mm | - | 0 W/m² | - |
| 1777711176 | 0.56° C | 74% | 1308 hPa | 0 mm | - | 0 W/m² | - |
| 1777710873 | 0° C | 75% | 1307.9 hPa | 0 mm | - | 0 W/m² | - |
| 1777710570 | 0° C | 74% | 1308 hPa | 0 mm | - | 0 W/m² | - |
| 1777710267 | 0.56° C | 73% | 1307.9 hPa | 0 mm | - | 0 W/m² | - |
| 1777709964 | 0.56° C | 72% | 1308 hPa | 0 mm | - | 0 W/m² | - |
| 1777709662 | 1.11° C | 71% | 1308 hPa | 0 mm | - | 0 W/m² | - |
| 1777709359 | 0.56° C | 72% | 1307.8 hPa | 0 mm | - | 0 W/m² | - |
| 1777709056 | 0.56° C | 70% | 1307.8 hPa | 0 mm | - | 0 W/m² | - |
| 1777708753 | 2.22° C | 69% | 1307.7 hPa | 0 mm | - | 0 W/m² | - |
| 1777708451 | 0.56° C | 73% | 1307.7 hPa | 0 mm | - | 0 W/m² | - |
| 1777708149 | 0.56° C | 73% | 1308 hPa | 0 mm | - | 0 W/m² | - |
| 1777707847 | 1.11° C | 71% | 1307.8 hPa | 0 mm | - | 0 W/m² | - |
| 1777707542 | 1.11° C | 71% | 1307.9 hPa | 0 mm | - | 0 W/m² | - |
| 1777707238 | 2.22° C | 69% | 1307.9 hPa | 0 mm | - | 0 W/m² | - |
| 1777706937 | 1.67° C | 70% | 1307.7 hPa | 0 mm | - | 0 W/m² | - |
| 1777706634 | 1.67° C | 69% | 1307.7 hPa | 0 mm | - | 0 W/m² | - |
| 1777706331 | 2.22° C | 69% | 1307.6 hPa | 0 mm | - | 0 W/m² | - |
| 1777706029 | 1.67° C | 69% | 1307.6 hPa | 0 mm | - | 0 W/m² | - |
| 1777705727 | 1.67° C | 70% | 1307.4 hPa | 0 mm | - | 0 W/m² | - |
* Rain latest hour (hover to see other rain measurements)
** Current wind speed in m/s (hover to see current wind gust speed)